DW8838 Alfreton UK current weather conditions

sailwx.info

Wind from 138

Air temperature 11.1° C
Dewpoint 9.5° C

Last reported at 2019-Jun-15 21:10 UTC.
Time now 2019-Jun-17 15:20 UTC

Location: N 53°06' W 001°23'.
View on Google Maps.

See reports from other nearby stations

  
Tides and Currents Weather Stations Pressure Air Temp Water Temp Dewpoint Dewpoint Depression Visibility Wind Speed Wind Dir Waves Ship Positions
date/time (UTC)wind fromknots sea level pressurealtimeterstation pressurevisibilityair tempwater tempwave heightnotes
2019-Jun-15 21:10 138 11.1
2019-Jun-15 21:01 125 0 gusting 1 11.1
2019-Jun-15 20:52 121 0 gusting 1 11.1
2019-Jun-15 20:43 124 0 gusting 2 11.1
2019-Jun-15 20:34 128 11.7
2019-Jun-15 20:25 133 11.7
2019-Jun-15 20:16 147 0 gusting 1 11.7
2019-Jun-15 20:07 146 11.7
2019-Jun-15 19:58 145 12.2
2019-Jun-15 19:49 148 0 gusting 1 12.2
2019-Jun-15 19:40 211 0 gusting 3 12.2
2019-Jun-15 19:31 157 0 gusting 3 12.2
2019-Jun-15 19:22 159 0 gusting 0 12.2
2019-Jun-15 19:13 147 0 gusting 2 12.8
2019-Jun-15 19:04 154 0 gusting 2 12.8
2019-Jun-15 18:55 153 0 gusting 2 12.8
2019-Jun-15 18:46 156 0 gusting 4 12.2
2019-Jun-15 18:37 167 0 gusting 3 12.2
2019-Jun-15 18:28 177 11.7
2019-Jun-15 18:19 172 11.7
2019-Jun-15 18:10 154 0 gusting 2 11.7
2019-Jun-15 18:01 158 2 gusting 7 12.2
2019-Jun-15 17:52 163 3 gusting 11 12.8
2019-Jun-15 17:43 158 2 gusting 6 13.3
2019-Jun-15 17:34 156 2 gusting 5 13.3
2019-Jun-15 17:25 147 4 gusting 7 13.3
2019-Jun-15 17:16 148 3 gusting 7 13.3
2019-Jun-15 17:07 143 4 gusting 8 13.9
2019-Jun-15 16:58 146 3 gusting 9 13.9
2019-Jun-15 16:49 140 3 gusting 6 14.4
2019-Jun-15 16:40 152 3 gusting 7 13.9
2019-Jun-15 16:31 161 2 gusting 5 13.9
2019-Jun-15 16:22 161 1 gusting 4 13.3
2019-Jun-15 16:13 166 1 gusting 6 13.3
2019-Jun-15 16:04 164 1 gusting 6 13.3
2019-Jun-15 15:55 174 0 gusting 4 13.3
2019-Jun-15 15:46 197 1 gusting 4 12.8
2019-Jun-15 15:37 196 1 gusting 5 12.8
2019-Jun-15 15:28 202 2 gusting 6 12.8
2019-Jun-15 15:19 205 2 gusting 10 12.8
2019-Jun-15 15:10 204 2 gusting 6 12.8
2019-Jun-15 15:01 197 3 gusting 7 12.8